FW4685 Weather Reports


Display with metric or nautical units.
time (UTC)temp
F
wind
direction
speed
MPH
gust
MPH
rain 1hr
in
rain 24hr
in
rain mn
in
humidity
%
barometer
mb
20260506160047 55 16 2.0 7.0 0.00 0.00 0.00 60 1014.8
20260506155044 55 11 0.0 5.0 0.00 0.00 0.00 61 1014.9
20260506154033 55 18 2.0 7.0 0.00 0.00 0.00 61 1014.9
20260506153027 55 17 1.0 7.0 0.00 0.00 0.00 62 1014.9
20260506152022 56 3 2.0 7.0 0.00 0.00 0.00 62 1015.0
20260506151052 58 28 2.0 7.0 0.00 0.00 0.00 62 1014.9
20260506150028 59 21 3.0 10.0 0.00 0.00 0.00 62 1014.9
20260506145027 59 29 5.0 15.0 0.00 0.00 0.00 56 1014.9
20260506144022 58 16 1.0 10.0 0.00 0.00 0.00 53 1014.7
20260506143031 57 16 3.0 7.0 0.00 0.00 0.00 57 1014.8
20260506142027 58 19 2.0 10.0 0.00 0.00 0.00 59 1014.9
20260506141027 58 26 3.0 15.0 0.00 0.00 0.00 57 1014.9
20260506140023 58 32 4.0 15.0 0.00 0.00 0.00 58 1014.9
20260506135111 58 24 3.0 12.0 0.00 0.00 0.00 59 1015.0
20260506134027 58 16 2.0 10.0 0.00 0.00 0.00 58 1014.9
20260506133046 58 16 3.0 10.0 0.00 0.00 0.00 59 1014.9
20260506132033 59 22 4.0 17.0 0.00 0.00 0.00 56 1014.9
20260506131027 59 14 2.0 7.0 0.00 0.00 0.00 57 1015.0
20260506130023 59 11 3.0 12.0 0.00 0.00 0.00 55 1014.8
20260506125023 59 29 3.0 12.0 0.00 0.00 0.00 54 1014.9
20260506124032 58 10 3.0 12.0 0.00 0.00 0.00 56 1015.0
20260506123026 58 10 4.0 12.0 0.00 0.00 0.00 55 1014.9
20260506122027 58 32 4.0 12.0 0.00 0.00 0.00 56 1014.9
20260506121024 58 16 4.0 15.0 0.00 0.00 0.00 56 1015.0
20260506120019 58 20 2.0 10.0 0.00 0.00 0.00 56 1015.0
20260506115032 57 1 2.0 17.0 0.00 0.00 0.00 56 1015.1
20260506114027 58 20 3.0 10.0 0.00 0.00 0.00 57 1015.0
20260506113024 57 17 3.0 15.0 0.00 0.00 0.00 55 1015.0
20260506112052 57 27 3.0 12.0 0.00 0.00 0.00 56 1015.2
20260506111027 57 7 3.0 10.0 0.00 0.00 0.00 55 1015.1
20260506110022 57 354 3.0 10.0 0.00 0.00 0.00 55 1015.1
20260506105031 57 18 3.0 10.0 0.00 0.00 0.00 56 1015.1
20260506104107 57 28 4.0 12.0 0.00 0.00 0.00 57 1015.1
20260506103024 56 35 3.0 10.0 0.00 0.00 0.00 56 1015.1
20260506102034 57 24 2.0 10.0 0.00 0.00 0.00 56 1015.1
20260506101031 56 26 3.0 10.0 0.00 0.00 0.00 58 1015.1
20260506100026 56 19 3.0 12.0 0.00 0.00 0.00 55 1015.1
20260506095022 55 26 2.0 10.0 0.00 0.00 0.00 58 1015.0
20260506094031 54 25 2.0 12.0 0.00 0.00 0.00 62 1015.1
20260506093026 54 354 2.0 7.0 0.00 0.00 0.00 64 1015.2
20260506092025 54 51 1.0 7.0 0.00 0.00 0.00 66 1015.2
20260506091637 52 58 2.0 5.0 0.00 0.00 0.00 66 1015.1
20260506072022 49 30 3.0 7.0 0.00 0.00 0.00 75 1015.2
20260506071025 49 27 2.0 5.0 0.00 0.00 0.00 76 1015.2
20260506062054 48 21 3.0 10.0 0.00 0.00 0.00 76 1015.0
20260506061020 48 14 1.0 7.0 0.00 0.00 0.00 77 1014.9
20260506051031 47 24 3.0 10.0 0.00 0.00 0.00 80 1014.5
20260506045030 47 34 2.0 7.0 0.00 0.00 0.00 80 1014.6
20260506044030 47 18 2.0 10.0 0.00 0.00 0.00 80 1014.5
20260506043033 48 359 2.0 7.0 0.00 0.00 0.00 80 1014.6
20260506042019 48 31 2.0 7.0 0.00 0.00 0.00 80 1014.4
20260506041024 48 21 2.0 7.0 0.00 0.00 0.00 80 1014.5
20260506040027 48 22 2.0 7.0 0.00 0.00 0.00 80 1014.5
20260506035026 48 20 1.0 5.0 0.00 0.00 0.00 80 1014.4
20260506034049 49 13 2.0 7.0 0.00 0.00 0.00 80 1014.4
20260506033029 49 27 3.0 12.0 0.00 0.00 0.00 80 1014.4
20260506032050 49 26 2.0 7.0 0.00 0.00 0.00 80 1014.5
20260506031030 49 16 2.0 10.0 0.00 0.00 0.00 79 1014.4
20260506030032 49 15 1.0 7.0 0.00 0.00 0.00 79 1014.4
20260506025028 50 27 1.0 7.0 0.00 0.00 0.00 79 1014.5
20260506024030 50 11 1.0 12.0 0.00 0.00 0.00 79 1014.4
20260506023051 50 19 2.0 12.0 0.00 0.00 0.00 79 1014.6
20260506022033 50 35 2.0 10.0 0.00 0.00 0.00 81 1014.5
20260506021020 50 27 2.0 10.0 0.00 0.00 0.00 80 1014.6
20260506020020 50 10 1.0 12.0 0.00 0.00 0.00 80 1014.6
20260506015022 51 24 2.0 10.0 0.00 0.00 0.00 80 1014.5
20260506014024 51 33 3.0 10.0 0.00 0.00 0.00 80 1014.6
20260506013026 51 21 2.0 7.0 0.00 0.00 0.00 79 1014.6
20260506012027 51 15 2.0 7.0 0.00 0.00 0.00 79 1014.8
20260506011030 51 25 3.0 10.0 0.00 0.00 0.00 78 1014.8
20260506010032 51 32 2.0 10.0 0.00 0.00 0.00 77 1014.7
20260506005059 51 21 2.0 12.0 0.00 0.00 0.00 76 1014.9
20260506004024 51 28 2.0 10.0 0.00 0.00 0.00 75 1014.7
20260506003026 52 28 2.0 10.0 0.00 0.00 0.00 75 1014.9
20260506002027 52 23 4.0 12.0 0.00 0.00 0.00 75 1014.8
20260506001047 52 44 2.0 7.0 0.00 0.00 0.00 75 1014.9
20260506000030 52 35 2.0 10.0 0.00 0.00 0.00 75 1014.8
20260505235031 52 27 1.0 5.0 0.00 0.00 0.00 75 1014.8
20260505234039 53 18 1.0 5.0 0.00 0.00 0.00 74 1014.8
20260505233022 53 26 3.0 12.0 0.00 0.00 0.00 74 1014.7
20260505232023 53 15 3.0 10.0 0.00 0.00 0.00 73 1014.8
20260505231045 53 33 2.0 10.0 0.00 0.00 0.00 74 1014.7
20260505230050 53 24 2.0 10.0 0.00 0.00 0.00 77 1014.8
20260505225033 54 16 1.0 7.0 0.00 0.00 0.00 77 1014.7
20260505224019 54 35 1.0 5.0 0.00 0.00 0.00 76 1014.7
20260505223023 54 73 0.0 5.0 0.00 0.00 0.00 76 1014.6
20260505222046 54 19 1.0 7.0 0.00 0.00 0.00 76 1014.6
20260505221027 55 13 1.0 12.0 0.00 0.00 0.00 76 1014.6
20260505220029 55 36 2.0 12.0 0.00 0.00 0.00 74 1014.6
20260505215032 55 79 0.0 2.0 0.00 0.00 0.00 73 1014.5
20260505214052 55 83 1.0 5.0 0.00 0.00 0.00 73 1014.5
20260505213112 56 46 0.0 2.0 0.00 0.00 0.00 72 1014.3
20260505212020 56 84 2.0 7.0 0.00 0.00 0.00 72 1014.3
20260505211039 56 20 0.0 5.0 0.00 0.00 0.00 71 1014.1
20260505210019 56 26 2.0 7.0 0.00 0.00 0.00 71 1014.1
20260505205040 56 7 2.0 7.0 0.00 0.00 0.00 70 1014.1
20260505204020 57 22 2.0 12.0 0.00 0.00 0.00 70 1014.0
20260505203022 57 29 5.0 15.0 0.00 0.00 0.00 69 1014.0
20260505202021 57 15 2.0 7.0 0.00 0.00 0.00 69 1013.9
20260505201024 57 39 5.0 12.0 0.00 0.00 0.00 69 1013.9
20260505200026 58 2 3.0 7.0 0.00 0.00 0.00 69 1013.8
20260505195050 58 18 3.0 10.0 0.00 0.00 0.00 69 1013.6
20260505194032 58 18 2.0 5.0 0.00 0.00 0.00 69 1013.5
20260505193019 59 20 3.0 12.0 0.00 0.00 0.00 67 1013.4
20260505192024 59 23 2.0 7.0 0.00 0.00 0.00 63 1013.3
20260505191024 59 25 1.0 5.0 0.00 0.00 0.00 63 1013.3
20260505190027 59 22 2.0 10.0 0.00 0.00 0.00 63 1013.0
20260505185029 59 27 1.0 7.0 0.00 0.00 0.00 63 1013.1
20260505184032 59 25 1.0 7.0 0.00 0.00 0.00 64 1013.1
20260505183031 59 26 2.0 10.0 0.00 0.00 0.00 65 1012.9
20260505182032 59 31 2.0 10.0 0.00 0.00 0.00 65 1013.0
20260505181020 59 7 1.0 7.0 0.00 0.00 0.00 66 1012.9
20260505180023 59 357 1.0 7.0 0.00 0.00 0.00 66 1013.1
20260505175024 59 6 1.0 5.0 0.00 0.00 0.00 65 1012.9
20260505174044 59 15 1.0 7.0 0.00 0.00 0.00 66 1012.8
20260505173024 60 336 0.0 5.0 0.00 0.00 0.00 65 1012.9
20260505172027 60 22 1.0 7.0 0.00 0.00 0.00 66 1013.1
20260505171048 60 16 0.0 5.0 0.00 0.00 0.00 65 1013.1
20260505170027 60 36 0.0 5.0 0.00 0.00 0.00 65 1013.1
20260505165027 60 13 1.0 5.0 0.00 0.00 0.00 63 1013.0
20260505164027 61 26 1.0 7.0 0.00 0.00 0.00 64 1013.1
20260505163027 61 13 1.0 5.0 0.00 0.00 0.00 63 1013.1
20260505162026 61 16 1.0 5.0 0.00 0.00 0.00 62 1013.2
20260505161048 62 17 1.0 7.0 0.00 0.00 0.00 61 1013.1